Погода в Щапове

Россия / Ивановская область     56°40′07″N   40°52′35″E
темп.,
°C
ветер,
м/с
пор.,
м/с
влажн.,
%
обл.,
%
осадки,
мм/ч
давл.,
гПа
погр.,
м
13 июня, вс
вс1300:00+14юв259872 0.0 1007100
03:00+13ююв2398100 0.0 100759
06:00+15ююв139578 0.0 1007132
09:00+21ююв237019 0.0 1007705
12:00+20ююв347794 1.6 1007626
15:00+23ю336094 2.6 10071260
18:00+21юз248169 1.6 1007152
21:00+16зюз229096 2.4 100912
14 июня, пн
пн1400:00+15зюз119476 0.0 101012
03:00+14зюз229661 0.0 101131
06:00+16юз13925 0.0 1012101
09:00+22юз23633 0.0 1013630
12:00+24зюз23500 1.1 10141307
15:00+26юз334225 1.1 10132203
18:00+24зюз246042 0.0 1014291
21:00+18с11825 0.0 101411
15 июня, вт
вт1500:00+16всв11830 0.0 101511
03:00+15всв11880 0.0 101411
06:00+18в11782 0.0 101479
09:00+24вюв115918 0.0 1014644
12:00+26ююз22496 0.0 10121378
15:00+27ю22443 0.0 10111923
18:00+24ююв356410 0.0 1010376
21:00+18юз229067 1.1 101011
16 июня, ср
ср1600:00+17ю119215 0.2 100911
03:00+16ююз2296100 1.0 100938
06:00+17ююз1295100 0.9 1009112
09:00+20сз2488100 0.9 1009360
12:00+21ссз478848 1.9 1010795
15:00+23с685346 2.3 10111649
18:00+21ссз47540 0.0 10131183
21:00+15сз412590 0.0 1015361
17 июня, чт
чт1700:00+12сз25762 0.0 101780
03:00+11ссз210710 0.0 1020209
06:00+13ссз310635 0.0 1021354
09:00+18ссз46453 0.0 10221117
12:00+21с46380 0.0 10231639
15:00+22ссз46390 0.0 10241723
18:00+21ссз35510 0.0 10241215
21:00+15сз227472 0.0 102511